Date String (YYYY-MM-DD hh:mm:ss) UTC,Instrument flags,Ambient pressure (hPa),Sample flow (lpm),Bypass flow (lpm),Sample temperature (°C),Ambient temperature (°C),ASC tube jacket temperature (°C),LED temperature (°C),Box temperature (°C),Sample RH (%),Span deviation,Mass concentration (μg/m³),Mass concentration (μg/m³),Mass concentration (μg/m³)
DateTimeUTC,F1_M11,P_M11,Q1_M11,Q2_M11,T1_M11,T2_M11,T3_M11,T4_M11,T5_M11,U1_M11,ZSPAN_M11,X0_M11,X2_M11,X1_M11
2022-12-19 04:00:00,,0820.6,4.96,0.00,22.3,22.0,00.0,31.0,24.3,06.1,0000.0,0013.23,0006.35,0005.46
2022-12-19 04:01:00,,0820.6,5.03,0.00,22.3,21.7,00.0,31.0,24.2,06.1,0001.5,0013.27,0006.37,0005.47
2022-12-19 04:02:00,,0820.6,4.98,0.00,22.3,21.4,00.0,31.0,24.2,06.1,0001.5,0013.25,0006.40,0005.48
2022-12-19 04:03:00,,0820.6,4.99,0.00,22.3,21.2,00.0,31.1,24.1,06.1,0000.0,0013.62,0006.40,0005.48
2022-12-19 04:04:00,,0820.6,5.01,0.00,22.2,21.0,00.0,31.1,24.0,06.1,0000.0,0013.44,0006.40,0005.48
2022-12-19 04:05:00,,0820.6,5.02,0.00,22.2,20.9,00.0,31.1,24.0,06.0,0000.0,0013.46,0006.39,0005.47
2022-12-19 04:06:00,,0820.6,4.96,0.00,22.2,20.8,00.0,31.1,24.0,06.0,0000.0,0013.44,0006.40,0005.46
2022-12-19 04:07:00,,0820.6,5.01,0.00,22.2,20.7,00.0,31.1,23.9,06.0,0000.0,0013.30,0006.37,0005.43
2022-12-19 04:08:00,,0820.6,5.03,0.00,22.2,20.7,00.0,31.1,23.9,06.1,0002.2,0012.47,0006.31,0005.41
2022-12-19 04:09:00,,0820.6,5.00,0.00,22.1,20.6,00.0,31.1,23.9,06.1,0002.5,0012.96,0006.25,0005.39
2022-12-19 04:10:00,,0820.6,4.97,0.00,22.1,20.5,00.0,31.0,23.8,06.1,0003.4,0013.37,0006.24,0005.38
2022-12-19 04:11:00,,0820.6,5.01,0.00,22.1,20.4,00.0,31.0,23.8,06.1,0000.1,0013.98,0006.26,0005.37
2022-12-19 04:12:00,,0820.6,5.03,0.00,22.0,20.4,00.0,31.0,23.8,06.1,0000.0,0014.50,0006.28,0005.36
2022-12-19 04:13:00,,0820.6,5.01,0.00,22.0,20.3,00.0,31.0,23.7,06.2,0000.0,0015.29,0006.28,0005.34
2022-12-19 04:14:00,,0820.7,4.95,0.00,22.0,20.3,00.0,31.0,23.7,06.2,0000.0,0015.10,0006.22,0005.32
2022-12-19 04:15:00,,0820.6,5.02,0.00,22.0,20.4,00.0,30.9,23.7,06.2,0000.6,0015.31,0006.22,0005.30
2022-12-19 04:16:00,,0820.6,5.03,0.00,22.0,21.2,00.0,30.9,23.9,06.3,0000.7,0016.10,0006.25,0005.29
2022-12-19 04:17:00,,0820.6,4.96,0.00,22.1,21.9,00.0,30.9,24.1,06.3,0001.1,0016.69,0006.32,0005.31
2022-12-19 04:18:00,,0820.6,5.05,0.00,22.2,21.8,00.0,30.9,24.1,06.3,0001.8,0017.00,0006.38,0005.34
2022-12-19 04:19:00,,0820.6,4.97,0.00,22.2,21.5,00.0,31.0,24.0,06.3,0002.2,0016.93,0006.41,0005.37
2022-12-19 04:20:00,,0820.6,5.00,0.00,22.2,21.2,00.0,31.0,23.9,06.3,0000.5,0017.17,0006.48,0005.40
2022-12-19 04:21:00,,0820.6,5.03,0.00,22.1,21.0,00.0,31.0,23.9,06.3,0000.0,0017.57,0006.57,0005.43
2022-12-19 04:22:00,,0820.6,4.97,0.00,22.1,20.8,00.0,31.0,23.8,06.3,0000.4,0017.44,0006.66,0005.47
2022-12-19 04:23:00,,0820.6,4.98,0.00,22.1,20.7,00.0,31.0,23.8,06.3,0000.4,0017.95,0006.69,0005.51
2022-12-19 04:24:00,,0820.6,5.02,0.00,22.0,20.6,00.0,31.0,23.7,06.3,0000.4,0017.37,0006.69,0005.54
2022-12-19 04:25:00,,0820.6,4.99,0.00,22.0,20.5,00.0,31.0,23.7,06.3,0001.7,0017.47,0006.78,0005.58
2022-12-19 04:26:00,,0820.6,4.97,0.00,22.0,20.4,00.0,30.9,23.6,06.3,0003.1,0017.16,0006.82,0005.60
2022-12-19 04:27:00,,0820.6,5.01,0.00,21.9,20.3,00.0,30.9,23.6,06.3,0002.7,0016.70,0006.79,0005.60
2022-12-19 04:28:00,,0820.6,5.02,0.00,21.9,20.3,00.0,30.9,23.6,06.3,0002.5,0017.21,0006.76,0005.58
2022-12-19 04:29:00,,0820.6,4.96,0.00,21.9,20.3,00.0,30.9,23.5,06.3,0001.0,0017.59,0006.77,0005.58
2022-12-19 04:30:00,,0820.7,5.01,0.00,21.9,20.2,00.0,30.9,23.5,06.3,0000.4,0018.02,0006.79,0005.58
2022-12-19 04:31:00,,0820.7,5.02,0.00,21.8,20.3,00.0,30.8,23.5,06.3,0000.0,0018.00,0006.81,0005.56
2022-12-19 04:32:00,,0820.6,5.00,0.00,21.9,21.1,00.0,30.8,23.7,06.2,0000.0,0018.20,0006.71,0005.51
2022-12-19 04:33:00,,0820.6,4.98,0.00,22.0,21.9,00.0,30.8,24.0,06.1,0000.0,0017.99,0006.63,0005.44
2022-12-19 04:34:00,,0820.6,5.02,0.00,22.1,21.9,00.0,30.8,24.0,06.1,0000.0,0017.57,0006.55,0005.38
2022-12-19 04:35:00,,0820.6,4.96,0.00,22.1,21.5,00.0,30.9,24.0,06.1,0002.1,0016.85,0006.48,0005.33
2022-12-19 04:36:00,,0820.7,5.02,0.00,22.1,21.2,00.0,30.9,23.9,06.1,0000.0,0016.54,0006.42,0005.29
2022-12-19 04:37:00,,0820.7,4.96,0.00,22.0,21.0,00.0,30.9,23.8,06.2,0000.0,0016.71,0006.43,0005.27
2022-12-19 04:38:00,,0820.7,5.01,0.00,22.0,20.8,00.0,30.9,23.7,06.2,0000.0,0016.64,0006.44,0005.27
2022-12-19 04:39:00,,0820.7,5.04,0.00,22.0,20.7,00.0,30.9,23.7,06.2,0000.0,0015.83,0006.43,0005.27
2022-12-19 04:40:00,,0820.6,5.01,0.00,22.0,20.6,00.0,30.9,23.6,06.2,0000.0,0015.46,0006.40,0005.26
2022-12-19 04:41:00,,0820.7,4.96,0.00,21.9,20.4,00.0,30.9,23.6,06.2,0000.1,0015.30,0006.31,0005.21
2022-12-19 04:42:00,,0820.7,5.02,0.00,21.9,20.3,00.0,30.9,23.5,06.2,0000.7,0015.79,0006.23,0005.18
2022-12-19 04:43:00,,0820.7,5.04,0.00,21.9,20.3,00.0,30.8,23.5,06.2,0000.0,0016.42,0006.23,0005.16
2022-12-19 04:44:00,,0820.8,4.99,0.00,21.8,20.3,00.0,30.8,23.5,06.2,0000.0,0017.36,0006.21,0005.15
2022-12-19 04:45:00,,0820.8,4.97,0.00,21.8,20.2,00.0,30.8,23.5,06.2,0000.5,0017.25,0006.20,0005.15
2022-12-19 04:46:00,,0820.8,5.02,0.00,21.8,20.2,00.0,30.8,23.4,06.2,0000.0,0017.40,0006.21,0005.13
2022-12-19 04:47:00,,0820.8,5.02,0.00,21.8,20.6,00.0,30.7,23.5,06.2,0000.0,0017.31,0006.18,0005.11
2022-12-19 04:48:00,,0820.8,4.96,0.00,21.9,21.6,00.0,30.7,23.8,06.1,0000.0,0017.44,0006.11,0005.08
2022-12-19 04:49:00,,0820.9,5.03,0.00,22.0,21.9,00.0,30.7,23.9,06.1,0000.0,0017.49,0006.05,0005.03
2022-12-19 04:50:00,,0820.8,5.01,0.00,22.0,21.6,00.0,30.8,23.9,06.1,0000.0,0017.59,0005.97,0004.98
2022-12-19 04:51:00,,0820.7,4.97,0.00,22.0,21.2,00.0,30.8,23.8,06.1,0000.0,0017.54,0005.87,0004.93
2022-12-19 04:52:00,,0820.8,5.04,0.00,22.0,20.9,00.0,30.8,23.7,06.1,0000.0,0018.09,0005.86,0004.91
2022-12-19 04:53:00,,0820.7,4.97,0.00,21.9,20.8,00.0,30.8,23.7,06.1,0000.0,0017.43,0005.84,0004.88
2022-12-19 04:54:00,,0820.7,4.99,0.00,21.9,20.6,00.0,30.8,23.6,06.1,0000.0,0015.36,0005.76,0004.85
2022-12-19 04:55:00,,0820.7,5.04,0.00,21.9,20.5,00.0,30.8,23.6,06.1,0000.0,0014.26,0005.76,0004.85
2022-12-19 04:56:00,,0820.7,5.02,0.00,21.9,20.4,00.0,30.8,23.5,06.2,0000.0,0014.18,0005.80,0004.83
2022-12-19 04:57:00,,0820.7,4.94,0.00,21.8,20.3,00.0,30.8,23.5,06.1,0000.0,0015.82,0005.75,0004.82
2022-12-19 04:58:00,,0820.7,5.03,0.00,21.8,20.3,00.0,30.8,23.4,06.1,0000.0,0017.00,0005.75,0004.81
2022-12-19 04:59:00,,0820.7,5.03,0.00,21.8,20.2,00.0,30.7,23.4,06.1,0000.0,0017.44,0005.72,0004.79
